CW9143 Weather Reports


time (UTC)temp
F
wind
direction
speed
knots
gust
knots
rain 1hr
in
rain 24hr
in
rain mn
in
humidity
%
barometer
mb
20260506190033 75 256 7.0 11.3 0.00 0.00 0.00 29 1016.7
20260506184537 74 347 3.5 10.4 0.00 0.00 0.00 29 1017.0
20260506183034 74 323 7.0 11.3 0.00 0.00 0.00 30 1017.1
20260506181535 73 253 1.7 10.4 0.00 0.00 0.00 31 1017.2
20260506180042 73 305 5.2 11.3 0.00 0.00 0.00 30 1017.4
20260506174537 72 338 2.6 11.3 0.00 0.00 0.00 31 1017.4
20260506173037 72 201 2.6 6.1 0.00 0.00 0.00 31 1017.3
20260506171550 70 189 1.7 6.1 0.00 0.00 0.00 33 1017.4
20260506170039 68 70 0.0 6.1 0.00 0.00 0.00 35 1017.3
20260506164534 67 0 0.0 7.0 0.00 0.00 0.00 36 1017.4
20260506163042 68 230 0.9 4.3 0.00 0.00 0.00 36 1017.4
20260506161537 67 144 1.7 4.3 0.00 0.00 0.00 37 1017.3
20260506160034 65 232 0.0 4.3 0.00 0.00 0.00 38 1017.3
20260506154542 65 0 0.0 2.6 0.00 0.00 0.00 39 1017.3
20260506153033 63 236 0.9 4.3 0.00 0.00 0.00 40 1017.4
20260506151536 63 239 0.9 2.6 0.00 0.00 0.00 40 1017.2
20260506150034 62 0 0.0 0.9 0.00 0.00 0.00 41 1017.3
20260506144541 60 0 0.0 0.9 0.00 0.00 0.00 43 1017.3
20260506143036 58 0 0.0 0.9 0.00 0.00 0.00 44 1017.1
20260506141535 55 0 0.0 0.0 0.00 0.00 0.00 44 1016.9
20260506140032 53 0 0.0 0.0 0.00 0.00 0.00 44 1016.9
20260506134537 49 87 0.0 0.9 0.00 0.00 0.00 47 1016.9
20260506133045 48 0 0.0 0.9 0.00 0.00 0.00 47 1016.4
20260506131538 48 0 0.0 0.0 0.00 0.00 0.00 46 1016.2
20260506130037 48 165 0.0 0.9 0.00 0.00 0.00 53 1015.9
20260506124534 49 0 0.0 0.9 0.00 0.00 0.00 54 1015.8
20260506123034 49 0 0.0 0.9 0.00 0.00 0.00 51 1015.6
20260506121532 48 0 0.0 0.0 0.00 0.00 0.00 50 1015.5
20260506120039 48 0 0.0 0.0 0.00 0.00 0.00 49 1015.5
20260506114537 50 0 0.0 0.0 0.00 0.00 0.00 49 1015.4
20260506113046 51 0 0.0 0.9 0.00 0.00 0.00 47 1015.4
20260506111535 51 0 0.0 0.9 0.00 0.00 0.00 48 1015.1
20260506110039 52 0 0.0 0.9 0.00 0.00 0.00 44 1015.0
20260506104545 53 0 0.0 0.0 0.00 0.00 0.00 45 1014.6
20260506103041 52 249 0.9 0.9 0.00 0.00 0.00 43 1014.5
20260506101546 53 0 0.0 1.7 0.00 0.00 0.00 41 1014.3
20260506100033 52 234 0.0 2.6 0.00 0.00 0.00 40 1014.4
20260506094534 50 222 1.7 3.5 0.00 0.00 0.00 42 1014.1
20260506093034 50 0 0.0 0.9 0.00 0.00 0.00 41 1014.0
20260506091534 49 340 0.0 1.7 0.00 0.00 0.00 42 1013.9
20260506090036 50 76 0.9 3.5 0.00 0.00 0.00 40 1013.8
20260506084541 51 0 0.0 1.7 0.00 0.00 0.00 39 1013.7
20260506083037 53 0 0.0 0.9 0.00 0.00 0.00 39 1013.5
20260506081533 54 0 0.0 1.7 0.00 0.00 0.00 38 1013.5
20260506073038 55 0 0.0 0.9 0.00 0.00 0.00 42 1013.6
20260506071538 55 0 0.0 0.9 0.00 0.00 0.00 41 1013.5
20260506061534 57 0 0.0 0.0 0.00 0.00 0.00 40 1012.8
20260506044539 58 0 0.0 0.9 0.00 0.00 0.00 32 1012.4
20260506043037 59 42 0.0 2.6 0.00 0.00 0.00 34 1012.2
20260506041539 60 0 0.0 0.9 0.00 0.00 0.00 34 1012.0
20260506040040 60 0 0.0 0.0 0.00 0.00 0.00 33 1011.6
20260506034532 61 0 0.0 0.0 0.00 0.00 0.00 31 1011.4
20260506033034 64 0 0.0 0.0 0.00 0.00 0.00 30 1011.2
20260506031534 66 185 0.0 3.5 0.00 0.00 0.00 29 1010.9
20260506030037 66 200 1.7 3.5 0.00 0.00 0.00 29 1010.7
20260506024537 67 232 1.7 4.3 0.00 0.00 0.00 29 1010.4
20260506023048 68 237 3.5 8.7 0.00 0.00 0.00 28 1010.3
20260506021536 70 216 2.6 6.1 0.00 0.00 0.00 27 1010.2
20260506020037 71 217 3.5 7.8 0.00 0.00 0.00 25 1010.0
20260506014539 72 234 1.7 6.1 0.00 0.00 0.00 26 1009.9
20260506013037 72 241 2.6 7.0 0.00 0.00 0.00 26 1009.9
20260506011536 72 233 3.5 7.0 0.00 0.00 0.00 26 1009.8
20260506010045 72 233 4.3 9.6 0.00 0.00 0.00 27 1009.7
20260506004537 72 227 3.5 10.4 0.00 0.00 0.00 27 1009.7
20260506003037 72 281 3.5 9.6 0.00 0.00 0.00 27 1009.6
20260506001544 72 231 1.7 7.8 0.00 0.00 0.00 28 1009.6
20260506000037 73 173 5.2 10.4 0.00 0.00 0.00 28 1009.4
20260505234556 71 248 2.6 10.4 0.00 0.00 0.00 29 1009.4
20260505233037 72 268 5.2 10.4 0.00 0.00 0.00 29 1009.4
20260505231535 72 155 3.5 10.4 0.00 0.00 0.00 29 1009.5
20260505230032 72 168 0.9 6.1 0.00 0.00 0.00 29 1009.7
20260505224535 72 246 2.6 7.0 0.00 0.00 0.00 29 1009.8
20260505223035 71 303 1.7 4.3 0.00 0.00 0.00 29 1010.0
20260505221535 71 171 4.3 11.3 0.00 0.00 0.00 30 1010.0
20260505220033 71 139 4.3 8.7 0.00 0.00 0.00 31 1010.3
20260505214558 71 250 5.2 9.6 0.00 0.00 0.00 30 1010.4
20260505213036 72 175 4.3 9.6 0.00 0.00 0.00 30 1010.7
20260505211532 71 244 3.5 9.6 0.00 0.00 0.00 31 1010.7
20260505210031 70 171 2.6 7.8 0.00 0.00 0.00 32 1010.8
20260505204537 71 239 1.7 7.0 0.00 0.00 0.00 31 1010.8
20260505203038 68 16 6.1 11.3 0.00 0.00 0.00 32 1010.8
20260505201536 68 261 3.5 11.3 0.00 0.00 0.00 33 1011.1
20260505200042 66 309 2.6 6.1 0.00 0.00 0.00 33 1011.2
20260505194544 67 96 0.9 9.6 0.00 0.00 0.00 33 1011.4
20260505193036 67 224 3.5 10.4 0.00 0.00 0.00 32 1011.5
20260505191537 66 0 1.7 8.7 0.00 0.00 0.00 35 1011.5